FIN1806 LICC-EFHK

Flight info

Callsign FIN1806
Flight time 3h 39m
Altitude 34000
Route BUDIN DCT AIOSA/N0450F330 DCT SOMUN/N0455F350 DCT SMI DCT PARAK DCT KEKED DCT SUMAM M857 BULEP DCT BOKSU DCT INBOV DCT GUNTA M857 SOKVA DCT ANAMA DCT KEMET Q11 INTOR
Aircraft A321/M-SDE3FGHIRWY/LB1

Departure

Time 2026-04-22 11:57
Airport Catania-Fontanarossa Airport (LICC)

Arrival

Time 2026-04-22 15:36
Airport Helsinki Vantaa Airport (EFHK)
Time Latitude Longitude Altitude Speed Heading
2026-04-22 11:24 37.46960 15.06471 49 ft 0 kts 19°
2026-04-22 11:47 37.46949 15.06467 51 ft 3 kts 17°
2026-04-22 11:47 37.46929 15.06460 48 ft 3 kts 12°
2026-04-22 11:47 37.46909 15.06455 51 ft 3 kts
2026-04-22 11:47 37.46889 15.06453 49 ft 3 kts
2026-04-22 11:48 37.46869 15.06454 51 ft 3 kts 352°
2026-04-22 11:48 37.46850 15.06459 51 ft 3 kts 334°
2026-04-22 11:48 37.46834 15.06472 51 ft 3 kts 297°
2026-04-22 11:48 37.46831 15.06483 51 ft 0 kts 264°
2026-04-22 11:49 37.46831 15.06484 51 ft 0 kts 264°
2026-04-22 11:51 37.46831 15.06480 51 ft 1 kts 264°
2026-04-22 11:51 37.46827 15.06439 51 ft 8 kts 264°
2026-04-22 11:52 37.46819 15.06344 50 ft 14 kts 263°
2026-04-22 11:52 37.46808 15.06215 49 ft 15 kts 264°
2026-04-22 11:52 37.46796 15.06083 51 ft 15 kts 264°
2026-04-22 11:52 37.46785 15.05947 51 ft 16 kts 264°
2026-04-22 11:53 37.46773 15.05808 51 ft 16 kts 264°
2026-04-22 11:53 37.46761 15.05666 51 ft 17 kts 264°
2026-04-22 11:53 37.46749 15.05521 49 ft 17 kts 264°
2026-04-22 11:53 37.46737 15.05378 51 ft 11 kts 264°
2026-04-22 11:54 37.46724 15.05319 51 ft 6 kts 239°
2026-04-22 11:54 37.46692 15.05282 51 ft 7 kts 223°
2026-04-22 11:54 37.46677 15.05264 51 ft 1 kts 223°
2026-04-22 11:54 37.46670 15.05256 49 ft 2 kts 223°
2026-04-22 11:55 37.46659 15.05243 48 ft 3 kts 223°
2026-04-22 11:55 37.46630 15.05212 51 ft 9 kts 216°
2026-04-22 11:55 37.46569 15.05217 49 ft 10 kts 128°
2026-04-22 11:55 37.46566 15.05302 51 ft 10 kts 82°
2026-04-22 11:56 37.46574 15.05398 50 ft 13 kts 85°
2026-04-22 11:56 37.46601 15.05723 50 ft 75 kts 84°
2026-04-22 11:56 37.46682 15.06688 51 ft 143 kts 83°
2026-04-22 11:56 37.46799 15.08128 369 ft 172 kts 85°
2026-04-22 11:57 37.46924 15.09589 1346 ft 168 kts 83°
2026-04-22 11:57 37.47116 15.11068 1684 ft 180 kts 81°
2026-04-22 11:57 37.47349 15.12692 1841 ft 197 kts 80°
2026-04-22 11:57 37.47603 15.14471 1972 ft 216 kts 79°
2026-04-22 11:58 37.47885 15.16441 2112 ft 240 kts 79°
2026-04-22 11:58 37.48184 15.18535 2714 ft 246 kts 79°
2026-04-22 11:58 37.48489 15.20671 3371 ft 249 kts 79°
2026-04-22 11:58 37.48793 15.22846 3952 ft 254 kts 79°
2026-04-22 11:59 37.49099 15.25053 4496 ft 260 kts 78°
2026-04-22 11:59 37.49565 15.27270 5087 ft 264 kts 65°
2026-04-22 11:59 37.50527 15.29239 5603 ft 268 kts 47°
2026-04-22 11:59 37.51964 15.30777 5928 ft 274 kts 29°
2026-04-22 12:00 37.53625 15.32054 6440 ft 283 kts 28°
2026-04-22 12:00 37.55313 15.33353 7074 ft 283 kts 28°
2026-04-22 12:00 37.57011 15.34661 7651 ft 289 kts 29°
2026-04-22 12:00 37.58727 15.36004 8265 ft 293 kts 29°
2026-04-22 12:01 37.60461 15.37368 8878 ft 295 kts 28°
2026-04-22 12:01 37.62211 15.38745 9472 ft 299 kts 28°
2026-04-22 12:01 37.63982 15.40139 10076 ft 301 kts 28°
2026-04-22 12:01 37.65794 15.41560 10355 ft 316 kts 27°
2026-04-22 12:02 37.67732 15.43046 10491 ft 335 kts 24°
2026-04-22 12:02 37.69924 15.44180 10624 ft 347 kts 11°
2026-04-22 12:02 37.72320 15.44665 11029 ft 350 kts 358°
2026-04-22 12:02 37.74734 15.44485 11588 ft 347 kts 346°
2026-04-22 12:03 37.77047 15.43663 12172 ft 345 kts 335°
2026-04-22 12:03 37.79283 15.42547 12759 ft 346 kts 335°
2026-04-22 12:03 37.81527 15.41423 13353 ft 347 kts 335°
2026-04-22 12:03 37.83782 15.40289 13896 ft 350 kts 335°
2026-04-22 12:04 37.86052 15.39147 14448 ft 353 kts 335°
2026-04-22 12:04 37.88339 15.37999 14988 ft 355 kts 335°
2026-04-22 12:04 37.90645 15.36842 15521 ft 358 kts 335°
2026-04-22 12:04 37.92967 15.35677 16056 ft 360 kts 335°
2026-04-22 12:05 37.95308 15.34503 16566 ft 363 kts 335°
2026-04-22 12:05 37.97658 15.33322 17066 ft 365 kts 335°
2026-04-22 12:05 38.00030 15.32128 17559 ft 368 kts 335°
2026-04-22 12:05 38.02416 15.30928 18069 ft 370 kts 334°
2026-04-22 12:06 38.04811 15.29723 18566 ft 371 kts 334°
2026-04-22 12:06 38.07218 15.28512 19057 ft 373 kts 335°
2026-04-22 12:06 38.09642 15.27289 19511 ft 375 kts 334°
2026-04-22 12:06 38.12070 15.26056 19941 ft 377 kts 334°
2026-04-22 12:07 38.14521 15.24814 20377 ft 381 kts 334°
2026-04-22 12:07 38.16989 15.23569 20831 ft 383 kts 334°
2026-04-22 12:07 38.19473 15.22316 21257 ft 385 kts 334°
2026-04-22 12:07 38.21969 15.21054 21657 ft 387 kts 334°
2026-04-22 12:08 38.24480 15.19784 22034 ft 389 kts 334°
2026-04-22 12:08 38.27002 15.18509 22413 ft 391 kts 334°
2026-04-22 12:08 38.29538 15.17221 22791 ft 393 kts 334°
2026-04-22 12:08 38.32082 15.15926 23144 ft 395 kts 334°
2026-04-22 12:09 38.33776 15.15064 23372 ft 397 kts 334°
2026-04-22 12:09 38.36346 15.13758 23718 ft 399 kts 334°
2026-04-22 12:09 38.38924 15.12449 24058 ft 400 kts 334°
2026-04-22 12:09 38.41522 15.11132 24385 ft 403 kts 334°
2026-04-22 12:10 38.44207 15.10040 24709 ft 409 kts 343°
2026-04-22 12:10 38.47058 15.09624 25037 ft 418 kts 354°
2026-04-22 12:10 38.49984 15.09959 25349 ft 427 kts
2026-04-22 12:10 38.52854 15.11083 25648 ft 438 kts 18°
2026-04-22 12:11 38.55634 15.12725 25948 ft 441 kts 19°
2026-04-22 12:11 38.58420 15.14396 26249 ft 443 kts 19°
2026-04-22 12:11 38.61213 15.16074 26546 ft 445 kts 19°
2026-04-22 12:11 38.64025 15.17758 26828 ft 446 kts 19°
2026-04-22 12:12 38.66841 15.19438 27117 ft 448 kts 19°
2026-04-22 12:12 38.69666 15.21118 27403 ft 449 kts 19°
2026-04-22 12:12 38.72506 15.22811 27674 ft 450 kts 19°
2026-04-22 12:12 38.75348 15.24508 27933 ft 452 kts 19°
2026-04-22 12:13 38.78199 15.26216 28190 ft 453 kts 19°
2026-04-22 12:13 38.81062 15.27935 28448 ft 455 kts 19°
2026-04-22 12:13 38.83928 15.29658 28711 ft 456 kts 19°
2026-04-22 12:13 38.86810 15.31391 28960 ft 458 kts 19°
2026-04-22 12:14 38.89697 15.33128 29223 ft 459 kts 19°
2026-04-22 12:14 38.92592 15.34871 29487 ft 460 kts 19°
2026-04-22 12:14 38.95485 15.36617 29826 ft 459 kts 18°
2026-04-22 12:14 38.98365 15.38357 30177 ft 457 kts 18°
2026-04-22 12:15 39.01241 15.40099 30515 ft 456 kts 18°
2026-04-22 12:15 39.04106 15.41835 30865 ft 454 kts 18°
2026-04-22 12:15 39.06956 15.43561 31200 ft 452 kts 18°
2026-04-22 12:15 39.09793 15.45282 31550 ft 450 kts 18°
2026-04-22 12:16 39.12626 15.47001 31898 ft 448 kts 18°
2026-04-22 12:16 39.15440 15.48708 32228 ft 446 kts 18°
2026-04-22 12:16 39.18249 15.50408 32560 ft 444 kts 18°
2026-04-22 12:16 39.21040 15.52097 32868 ft 442 kts 18°
2026-04-22 12:17 39.23819 15.53780 33184 ft 441 kts 18°
2026-04-22 12:17 39.26590 15.55461 33479 ft 439 kts 18°
2026-04-22 12:17 39.29346 15.57140 33756 ft 437 kts 18°
2026-04-22 12:17 39.32093 15.58815 33994 ft 436 kts 18°
2026-04-22 12:18 39.37554 15.62152 34064 ft 433 kts 17°
2026-04-22 12:18 39.42991 15.65475 34064 ft 432 kts 17°
2026-04-22 12:19 39.48416 15.68794 34064 ft 431 kts 17°
2026-04-22 12:19 39.53842 15.72120 34063 ft 431 kts 17°
2026-04-22 12:20 39.59262 15.75454 34066 ft 431 kts 17°
2026-04-22 12:20 39.64684 15.78795 34070 ft 432 kts 17°
2026-04-22 12:21 39.70107 15.82141 34073 ft 432 kts 17°
2026-04-22 12:21 39.75533 15.85490 34080 ft 432 kts 17°
2026-04-22 12:22 39.80953 15.88844 34076 ft 431 kts 17°
2026-04-22 12:22 39.86366 15.92207 34075 ft 431 kts 17°
2026-04-22 12:23 39.91775 15.95562 34075 ft 431 kts 17°
2026-04-22 12:23 39.97186 15.98927 34070 ft 431 kts 17°
2026-04-22 12:24 40.02592 16.02302 34071 ft 431 kts 17°
2026-04-22 12:24 40.07996 16.05667 34070 ft 430 kts 17°
2026-04-22 12:25 40.13400 16.09047 34073 ft 431 kts 17°
2026-04-22 12:25 40.18804 16.12438 34077 ft 431 kts 17°
2026-04-22 12:26 40.24210 16.15831 34081 ft 431 kts 17°
2026-04-22 12:26 40.29619 16.19235 34082 ft 431 kts 17°
2026-04-22 12:27 40.35023 16.22637 34075 ft 431 kts 17°
2026-04-22 12:27 40.40429 16.26043 34069 ft 431 kts 17°
2026-04-22 12:28 40.45845 16.29467 34070 ft 432 kts 16°
2026-04-22 12:28 40.51261 16.32903 34066 ft 432 kts 16°
2026-04-22 12:29 40.56682 16.36349 34065 ft 434 kts 16°
2026-04-22 12:29 40.62117 16.39806 34061 ft 434 kts 16°
2026-04-22 12:30 40.70288 16.44992 34060 ft 435 kts 16°
2026-04-22 12:31 40.75739 16.48477 34059 ft 436 kts 16°
2026-04-22 12:31 40.81196 16.51965 34059 ft 436 kts 16°
2026-04-22 12:32 40.86618 16.55444 34063 ft 437 kts 16°
2026-04-22 12:32 40.94818 16.60708 34062 ft 437 kts 15°
2026-04-22 12:33 41.00284 16.64223 34059 ft 437 kts 15°
2026-04-22 12:33 41.05754 16.67756 34058 ft 438 kts 15°
2026-04-22 12:34 41.11230 16.71296 34058 ft 438 kts 15°
2026-04-22 12:34 41.16708 16.74844 34062 ft 438 kts 15°
2026-04-22 12:35 41.22193 16.78406 34062 ft 439 kts 15°
2026-04-22 12:35 41.27685 16.81973 34063 ft 439 kts 15°
2026-04-22 12:36 41.33173 16.85544 34063 ft 439 kts 15°
2026-04-22 12:36 41.38668 16.89123 34066 ft 440 kts 15°
2026-04-22 12:37 41.44166 16.92722 34065 ft 441 kts 15°
2026-04-22 12:37 41.49671 16.96329 34065 ft 440 kts 15°
2026-04-22 12:38 41.55172 16.99930 34064 ft 441 kts 15°
2026-04-22 12:38 41.60683 17.03549 34057 ft 441 kts 15°
2026-04-22 12:39 41.68960 17.08999 34053 ft 443 kts 15°
2026-04-22 12:40 41.74485 17.12661 34051 ft 443 kts 15°
2026-04-22 12:40 41.80019 17.16320 34051 ft 444 kts 15°
2026-04-22 12:41 41.85558 17.19992 34050 ft 444 kts 15°
2026-04-22 12:41 41.91099 17.23677 34047 ft 445 kts 15°
2026-04-22 12:42 41.96653 17.27363 34047 ft 445 kts 15°
2026-04-22 12:42 42.02214 17.31052 34040 ft 446 kts 15°
2026-04-22 12:43 42.07785 17.34760 34032 ft 447 kts 15°
2026-04-22 12:43 42.13365 17.38487 34034 ft 448 kts 15°
2026-04-22 12:44 42.18956 17.42220 34039 ft 449 kts 16°
2026-04-22 12:44 42.24559 17.45960 34030 ft 450 kts 16°
2026-04-22 12:45 42.30172 17.49729 34043 ft 450 kts 16°
2026-04-22 12:45 42.35783 17.53502 34047 ft 451 kts 16°
2026-04-22 12:46 42.41402 17.57287 34049 ft 451 kts 16°
2026-04-22 12:46 42.47020 17.61076 34050 ft 451 kts 16°
2026-04-22 12:47 42.52636 17.64870 34048 ft 451 kts 16°
2026-04-22 12:47 42.58249 17.68683 34048 ft 451 kts 17°
2026-04-22 12:48 42.63855 17.72499 34034 ft 451 kts 17°
2026-04-22 12:48 42.69473 17.76311 34040 ft 452 kts 17°
2026-04-22 12:49 42.75095 17.80131 34042 ft 452 kts 17°
2026-04-22 12:49 42.80719 17.83976 34036 ft 452 kts 17°
2026-04-22 12:50 42.86343 17.87821 34030 ft 452 kts 17°
2026-04-22 12:50 42.91976 17.91678 34032 ft 453 kts 18°
2026-04-22 12:51 42.97612 17.95561 34032 ft 454 kts 18°
2026-04-22 12:51 43.02296 17.98795 34031 ft 454 kts 18°
2026-04-22 12:52 43.07947 18.02694 34019 ft 455 kts 19°
2026-04-22 12:52 43.13608 18.06612 34008 ft 457 kts 19°
2026-04-22 12:53 43.19332 18.10580 34001 ft 459 kts 19°
2026-04-22 12:53 43.25031 18.14526 34006 ft 460 kts 19°
2026-04-22 12:54 43.30741 18.18494 34012 ft 460 kts 19°
2026-04-22 12:54 43.36455 18.22478 34324 ft 462 kts 20°
2026-04-22 12:54 43.39320 18.24483 34549 ft 462 kts 20°
2026-04-22 12:55 43.42182 18.26489 34792 ft 462 kts 20°
2026-04-22 12:55 43.45043 18.28491 35009 ft 462 kts 20°
2026-04-22 12:55 43.47907 18.30494 35063 ft 462 kts 20°
2026-04-22 12:56 43.53635 18.34508 35083 ft 461 kts 20°
2026-04-22 12:56 43.59314 18.38507 35108 ft 462 kts 20°
2026-04-22 12:57 43.65033 18.42537 35121 ft 461 kts 20°
2026-04-22 12:57 43.70755 18.46573 35130 ft 462 kts 21°
2026-04-22 12:58 43.76486 18.50624 35133 ft 463 kts 21°
2026-04-22 12:58 43.82220 18.54695 35137 ft 463 kts 21°
2026-04-22 12:59 43.87957 18.58781 35146 ft 463 kts 21°
2026-04-22 12:59 43.93691 18.62868 35148 ft 464 kts 21°
2026-04-22 13:00 43.99426 18.66957 35154 ft 463 kts 21°
2026-04-22 13:00 44.05155 18.71056 35158 ft 463 kts 22°
2026-04-22 13:01 44.10887 18.75166 35164 ft 463 kts 22°
2026-04-22 13:01 44.16607 18.79283 35166 ft 463 kts 22°
2026-04-22 13:02 44.22330 18.83394 35171 ft 462 kts 22°
2026-04-22 13:02 44.28052 18.87511 35173 ft 463 kts 22°
2026-04-22 13:03 44.33765 18.91655 35180 ft 463 kts 22°
2026-04-22 13:03 44.39479 18.95805 35180 ft 463 kts 22°
2026-04-22 13:04 44.45192 18.99955 35183 ft 462 kts 22°
2026-04-22 13:04 44.50900 19.04118 35182 ft 463 kts 23°
2026-04-22 13:05 44.56608 19.08286 35184 ft 462 kts 23°
2026-04-22 13:05 44.62298 19.12487 35184 ft 463 kts 24°
2026-04-22 13:06 44.67923 19.16895 35185 ft 463 kts 25°
2026-04-22 13:06 44.73524 19.21371 35184 ft 463 kts 25°
2026-04-22 13:07 44.79138 19.25809 35181 ft 462 kts 25°
2026-04-22 13:07 44.84748 19.30224 35181 ft 462 kts 25°
2026-04-22 13:08 44.90356 19.34661 35178 ft 462 kts 25°
2026-04-22 13:08 44.95948 19.39103 35177 ft 461 kts 25°
2026-04-22 13:09 45.01577 19.43430 35174 ft 458 kts 19°
2026-04-22 13:09 45.07474 19.46759 35176 ft 456 kts 18°
2026-04-22 13:10 45.13373 19.50072 35177 ft 456 kts 18°
2026-04-22 13:10 45.19266 19.53402 35177 ft 455 kts 18°
2026-04-22 13:11 45.25144 19.56732 35178 ft 455 kts 18°
2026-04-22 13:11 45.31026 19.60072 35176 ft 455 kts 18°
2026-04-22 13:12 45.36899 19.63420 35179 ft 455 kts 19°
2026-04-22 13:12 45.42777 19.66773 35178 ft 455 kts 19°
2026-04-22 13:13 45.48647 19.70125 35178 ft 455 kts 19°
2026-04-22 13:13 45.54508 19.73496 35179 ft 454 kts 19°
2026-04-22 13:14 45.60370 19.76864 35177 ft 453 kts 19°
2026-04-22 13:14 45.66215 19.80221 35169 ft 453 kts 19°
2026-04-22 13:15 45.72057 19.83591 35168 ft 453 kts 19°
2026-04-22 13:15 45.77894 19.86969 35168 ft 452 kts 20°
2026-04-22 13:16 45.83727 19.90342 35166 ft 452 kts 20°
2026-04-22 13:16 45.89559 19.93718 35165 ft 452 kts 20°
2026-04-22 13:17 45.95388 19.97117 35166 ft 452 kts 20°
2026-04-22 13:17 46.01217 20.00526 35166 ft 452 kts 20°
2026-04-22 13:18 46.07039 20.03934 35165 ft 452 kts 20°
2026-04-22 13:18 46.12862 20.07338 35166 ft 452 kts 20°
2026-04-22 13:19 46.18703 20.10685 35165 ft 452 kts 18°
2026-04-22 13:19 46.24647 20.13604 35160 ft 450 kts 15°
2026-04-22 13:20 46.30615 20.16356 35160 ft 450 kts 16°
2026-04-22 13:20 46.36568 20.19186 35159 ft 451 kts 16°
2026-04-22 13:21 46.42508 20.22099 35160 ft 451 kts 17°
2026-04-22 13:21 46.48403 20.25017 35157 ft 450 kts 17°
2026-04-22 13:22 46.54332 20.27929 35154 ft 450 kts 17°
2026-04-22 13:22 46.60254 20.30834 35153 ft 449 kts 17°
2026-04-22 13:23 46.66171 20.33748 35152 ft 449 kts 17°
2026-04-22 13:23 46.72080 20.36663 35151 ft 449 kts 17°
2026-04-22 13:24 46.77990 20.39590 35153 ft 448 kts 17°
2026-04-22 13:24 46.83890 20.42527 35157 ft 448 kts 17°
2026-04-22 13:25 46.89781 20.45463 35159 ft 447 kts 17°
2026-04-22 13:25 46.95669 20.48400 35159 ft 446 kts 17°
2026-04-22 13:26 47.01541 20.51333 35158 ft 446 kts 17°
2026-04-22 13:26 47.07407 20.54276 35159 ft 446 kts 17°
2026-04-22 13:27 47.13273 20.57216 35159 ft 445 kts 17°
2026-04-22 13:27 47.19131 20.60166 35158 ft 444 kts 18°
2026-04-22 13:28 47.24980 20.63112 35157 ft 444 kts 18°
2026-04-22 13:28 47.30828 20.66069 35155 ft 444 kts 18°
2026-04-22 13:29 47.36671 20.69030 35151 ft 444 kts 18°
2026-04-22 13:29 47.42509 20.71995 35148 ft 444 kts 18°
2026-04-22 13:30 47.48341 20.74971 35140 ft 444 kts 18°
2026-04-22 13:30 47.54177 20.77952 35142 ft 443 kts 18°
2026-04-22 13:31 47.60006 20.80942 35138 ft 443 kts 18°
2026-04-22 13:31 47.65830 20.83935 35136 ft 443 kts 18°
2026-04-22 13:32 47.71652 20.86935 35142 ft 443 kts 18°
2026-04-22 13:32 47.77471 20.89932 35140 ft 443 kts 18°
2026-04-22 13:33 47.83294 20.92927 35137 ft 443 kts 18°
2026-04-22 13:33 47.89108 20.95930 35140 ft 443 kts 18°
2026-04-22 13:34 47.94928 20.98955 35141 ft 443 kts 18°
2026-04-22 13:34 47.99755 21.01466 35136 ft 442 kts 18°
2026-04-22 13:35 48.05562 21.04486 35148 ft 441 kts 19°
2026-04-22 13:35 48.11343 21.07508 35144 ft 439 kts 19°
2026-04-22 13:36 48.17107 21.10537 35140 ft 439 kts 19°
2026-04-22 13:36 48.22863 21.13559 35137 ft 438 kts 19°
2026-04-22 13:37 48.28608 21.16582 35132 ft 437 kts 19°
2026-04-22 13:37 48.35321 21.20126 35133 ft 437 kts 19°
2026-04-22 13:38 48.40084 21.22645 35124 ft 437 kts 19°
2026-04-22 13:38 48.48683 21.27210 35125 ft 437 kts 19°
2026-04-22 13:39 48.54519 21.29667 35122 ft 436 kts
2026-04-22 13:39 48.60521 21.31021 35127 ft 436 kts
2026-04-22 13:40 48.66528 21.32380 35125 ft 436 kts
2026-04-22 13:40 48.72533 21.33753 35124 ft 436 kts
2026-04-22 13:41 48.78536 21.35136 35128 ft 436 kts
2026-04-22 13:41 48.84537 21.36522 35123 ft 436 kts
2026-04-22 13:42 48.90532 21.37913 35130 ft 435 kts
2026-04-22 13:42 48.96520 21.39297 35126 ft 435 kts
2026-04-22 13:43 49.02508 21.40677 35130 ft 435 kts
2026-04-22 13:43 49.08493 21.42061 35131 ft 435 kts
2026-04-22 13:44 49.14469 21.43454 35136 ft 434 kts
2026-04-22 13:44 49.20444 21.44853 35138 ft 434 kts
2026-04-22 13:45 49.26368 21.46241 35139 ft 434 kts 10°
2026-04-22 13:45 49.32328 21.47646 35140 ft 433 kts 10°
2026-04-22 13:46 49.38291 21.49052 35138 ft 433 kts 10°
2026-04-22 13:46 49.44249 21.50457 35145 ft 433 kts 10°
2026-04-22 13:47 49.50197 21.51871 35141 ft 433 kts 10°
2026-04-22 13:47 49.56141 21.53282 35143 ft 432 kts 10°
2026-04-22 13:48 49.62086 21.54688 35138 ft 432 kts 10°
2026-04-22 13:48 49.68024 21.56098 35136 ft 431 kts 10°
2026-04-22 13:49 49.73955 21.57512 35133 ft 431 kts 11°
2026-04-22 13:49 49.79888 21.58930 35130 ft 431 kts 11°
2026-04-22 13:50 49.85809 21.60352 35133 ft 430 kts 11°
2026-04-22 13:50 49.91725 21.61773 35127 ft 430 kts 11°
2026-04-22 13:51 49.97638 21.63202 35132 ft 430 kts 11°
2026-04-22 13:51 50.03540 21.64632 35133 ft 429 kts 11°
2026-04-22 13:52 50.09439 21.66071 35133 ft 429 kts 11°
2026-04-22 13:52 50.15330 21.67500 35130 ft 428 kts 11°
2026-04-22 13:53 50.21213 21.68931 35130 ft 428 kts 11°
2026-04-22 13:53 50.27099 21.70366 35128 ft 428 kts 11°
2026-04-22 13:54 50.32981 21.71806 35129 ft 428 kts 11°
2026-04-22 13:54 50.38858 21.73254 35127 ft 428 kts 11°
2026-04-22 13:55 50.44736 21.74693 35127 ft 428 kts 11°
2026-04-22 13:55 50.50617 21.76134 35126 ft 427 kts 11°
2026-04-22 13:56 50.56494 21.77593 35129 ft 428 kts 11°
2026-04-22 13:56 50.62365 21.79061 35127 ft 427 kts 11°
2026-04-22 13:57 50.68236 21.80517 35128 ft 427 kts 11°
2026-04-22 13:57 50.74106 21.81974 35123 ft 427 kts 11°
2026-04-22 13:58 50.79974 21.83438 35122 ft 427 kts 12°
2026-04-22 13:58 50.85836 21.84913 35121 ft 427 kts 12°
2026-04-22 13:59 50.91698 21.86381 35123 ft 426 kts 12°
2026-04-22 13:59 50.97552 21.87852 35121 ft 426 kts 12°
2026-04-22 14:00 51.03402 21.89330 35120 ft 425 kts 12°
2026-04-22 14:00 51.09238 21.90808 35121 ft 425 kts 12°
2026-04-22 14:01 51.15075 21.92285 35117 ft 425 kts 12°
2026-04-22 14:01 51.20912 21.93766 35121 ft 424 kts 12°
2026-04-22 14:02 51.26740 21.95252 35121 ft 424 kts 13°
2026-04-22 14:02 51.32565 21.96742 35123 ft 424 kts 13°
2026-04-22 14:03 51.38379 21.98237 35119 ft 423 kts 13°
2026-04-22 14:03 51.44184 21.99734 35115 ft 422 kts 13°
2026-04-22 14:04 51.49981 22.01221 35113 ft 422 kts 13°
2026-04-22 14:04 51.55770 22.02719 35112 ft 421 kts 13°
2026-04-22 14:05 51.61563 22.04217 35111 ft 421 kts 13°
2026-04-22 14:06 51.70195 22.06699 35111 ft 420 kts 15°
2026-04-22 14:06 51.75940 22.08419 35110 ft 420 kts 14°
2026-04-22 14:07 51.81687 22.10109 35106 ft 420 kts 14°
2026-04-22 14:07 51.87436 22.11783 35107 ft 420 kts 14°
2026-04-22 14:08 51.93190 22.13467 35107 ft 420 kts 14°
2026-04-22 14:08 51.98940 22.15168 35108 ft 420 kts 14°
2026-04-22 14:09 52.04687 22.16877 35107 ft 420 kts 14°
2026-04-22 14:09 52.10434 22.18580 35107 ft 420 kts 14°
2026-04-22 14:10 52.16176 22.20282 35108 ft 419 kts 15°
2026-04-22 14:10 52.21888 22.22194 35112 ft 418 kts 16°
2026-04-22 14:11 52.27572 22.24261 35115 ft 418 kts 17°
2026-04-22 14:11 52.33252 22.26304 35112 ft 417 kts 16°
2026-04-22 14:12 52.38927 22.28312 35109 ft 417 kts 16°
2026-04-22 14:12 52.44601 22.30301 35108 ft 417 kts 16°
2026-04-22 14:13 52.50277 22.32299 35107 ft 417 kts 16°
2026-04-22 14:13 52.55942 22.34314 35105 ft 416 kts 16°
2026-04-22 14:14 52.61604 22.36340 35103 ft 416 kts 16°
2026-04-22 14:14 52.67255 22.38364 35100 ft 415 kts 16°
2026-04-22 14:15 52.72903 22.40381 35098 ft 415 kts 16°
2026-04-22 14:15 52.78542 22.42414 35097 ft 414 kts 17°
2026-04-22 14:16 52.84142 22.44628 35108 ft 415 kts 18°
2026-04-22 14:16 52.86936 22.45786 35399 ft 413 kts 18°
2026-04-22 14:16 52.89727 22.46947 35667 ft 413 kts 18°
2026-04-22 14:16 52.91574 22.47711 35821 ft 413 kts 17°
2026-04-22 14:17 52.94367 22.48859 36053 ft 413 kts 17°
2026-04-22 14:17 52.97162 22.49996 36244 ft 414 kts 17°
2026-04-22 14:17 52.99967 22.51130 36438 ft 415 kts 17°
2026-04-22 14:17 53.02775 22.52265 36618 ft 416 kts 17°
2026-04-22 14:18 53.06496 22.53772 36906 ft 415 kts 17°
2026-04-22 14:18 53.09294 22.54911 37030 ft 413 kts 17°
2026-04-22 14:18 53.11181 22.55678 37043 ft 412 kts 17°
2026-04-22 14:19 53.16731 22.57937 37045 ft 410 kts 17°
2026-04-22 14:19 53.22260 22.60211 37044 ft 409 kts 17°
2026-04-22 14:20 53.30542 22.63625 37043 ft 409 kts 17°
2026-04-22 14:20 53.36067 22.65894 37050 ft 409 kts 17°
2026-04-22 14:21 53.44359 22.69332 37055 ft 409 kts 17°
2026-04-22 14:22 53.52647 22.72776 37054 ft 409 kts 17°
2026-04-22 14:23 53.60923 22.76221 37033 ft 414 kts 17°
2026-04-22 14:23 53.66538 22.78574 37025 ft 417 kts 17°
2026-04-22 14:24 53.72167 22.80936 37026 ft 417 kts 17°
2026-04-22 14:24 53.77796 22.83301 37027 ft 417 kts 17°
2026-04-22 14:25 53.83425 22.85670 37029 ft 417 kts 17°
2026-04-22 14:25 53.89059 22.88059 37033 ft 418 kts 17°
2026-04-22 14:26 53.94698 22.90456 37034 ft 418 kts 17°
2026-04-22 14:26 54.00344 22.92856 37034 ft 418 kts 17°
2026-04-22 14:27 54.05983 22.95260 37044 ft 417 kts 17°
2026-04-22 14:27 54.11597 22.97660 37031 ft 413 kts 17°
2026-04-22 14:28 54.17062 23.00001 37018 ft 402 kts 17°
2026-04-22 14:28 54.22473 23.02343 37017 ft 401 kts 17°
2026-04-22 14:29 54.27876 23.04684 37007 ft 401 kts 17°
2026-04-22 14:29 54.33301 23.06881 37008 ft 401 kts 14°
2026-04-22 14:30 54.38806 23.08537 37009 ft 402 kts 12°
2026-04-22 14:30 54.44337 23.10061 37012 ft 402 kts 13°
2026-04-22 14:31 54.49855 23.11684 37008 ft 402 kts 13°
2026-04-22 14:31 54.55361 23.13372 37006 ft 402 kts 13°
2026-04-22 14:32 54.60869 23.15067 37005 ft 402 kts 13°
2026-04-22 14:32 54.66366 23.16753 36999 ft 401 kts 13°
2026-04-22 14:33 54.71860 23.18441 36995 ft 401 kts 13°
2026-04-22 14:33 54.77348 23.20132 36995 ft 400 kts 13°
2026-04-22 14:34 54.82831 23.21841 36990 ft 400 kts 13°
2026-04-22 14:34 54.88311 23.23541 36988 ft 400 kts 13°
2026-04-22 14:35 54.93781 23.25232 36986 ft 399 kts 13°
2026-04-22 14:35 54.99247 23.26924 36987 ft 399 kts 13°
2026-04-22 14:36 55.04700 23.28623 36986 ft 398 kts 13°
2026-04-22 14:36 55.10151 23.30340 36987 ft 398 kts 14°
2026-04-22 14:37 55.15588 23.32061 36988 ft 397 kts 13°
2026-04-22 14:37 55.21019 23.33771 36989 ft 396 kts 13°
2026-04-22 14:38 55.26446 23.35477 36988 ft 396 kts 13°
2026-04-22 14:38 55.31853 23.37196 36986 ft 395 kts 13°
2026-04-22 14:39 55.37249 23.38912 36987 ft 394 kts 13°
2026-04-22 14:39 55.42636 23.40625 36987 ft 393 kts 13°
2026-04-22 14:40 55.50664 23.43405 36981 ft 391 kts 15°
2026-04-22 14:40 55.55986 23.45393 36978 ft 391 kts 15°
2026-04-22 14:41 55.61303 23.47354 36977 ft 390 kts 14°
2026-04-22 14:41 55.66610 23.49291 36980 ft 389 kts 14°
2026-04-22 14:42 55.71905 23.51216 36974 ft 388 kts 14°
2026-04-22 14:42 55.77189 23.53158 36972 ft 387 kts 15°
2026-04-22 14:43 55.82465 23.55109 36976 ft 387 kts 15°
2026-04-22 14:43 55.87732 23.57045 36973 ft 386 kts 14°
2026-04-22 14:44 55.92994 23.58984 36968 ft 386 kts 14°
2026-04-22 14:44 55.98245 23.60937 36972 ft 386 kts 15°
2026-04-22 14:45 56.03464 23.62880 36980 ft 386 kts 15°
2026-04-22 14:45 56.08710 23.64843 36972 ft 384 kts 15°
2026-04-22 14:46 56.13937 23.66809 36968 ft 383 kts 14°
2026-04-22 14:46 56.19155 23.68762 36973 ft 383 kts 14°
2026-04-22 14:47 56.24376 23.70723 36972 ft 384 kts 14°
2026-04-22 14:47 56.29627 23.72705 36971 ft 383 kts 14°
2026-04-22 14:48 56.34837 23.74674 36970 ft 383 kts 15°
2026-04-22 14:48 56.40051 23.76673 36970 ft 383 kts 15°
2026-04-22 14:49 56.45252 23.78753 36969 ft 383 kts 15°
2026-04-22 14:49 56.50458 23.80847 36967 ft 382 kts 15°
2026-04-22 14:50 56.55647 23.82929 36970 ft 383 kts 15°
2026-04-22 14:50 56.60850 23.85000 36969 ft 382 kts 14°
2026-04-22 14:51 56.66026 23.86911 36970 ft 382 kts 14°
2026-04-22 14:51 56.71268 23.88806 36971 ft 381 kts 14°
2026-04-22 14:52 56.76466 23.90711 36971 ft 381 kts 14°
2026-04-22 14:52 56.81668 23.92640 36969 ft 381 kts 14°
2026-04-22 14:53 56.86833 23.94560 36967 ft 381 kts 14°
2026-04-22 14:53 56.92029 23.96494 36964 ft 381 kts 14°
2026-04-22 14:54 56.97275 23.98324 36964 ft 381 kts 13°
2026-04-22 14:54 57.02488 24.00029 36965 ft 380 kts 12°
2026-04-22 14:55 57.07694 24.01735 36961 ft 380 kts 12°
2026-04-22 14:55 57.12895 24.03460 36964 ft 379 kts 12°
2026-04-22 14:56 57.18085 24.05205 36966 ft 379 kts 12°
2026-04-22 14:56 57.23270 24.06959 36968 ft 378 kts 12°
2026-04-22 14:57 57.28445 24.08712 36966 ft 378 kts 12°
2026-04-22 14:57 57.33618 24.10467 36962 ft 378 kts 12°
2026-04-22 14:58 57.38783 24.12231 36960 ft 377 kts 12°
2026-04-22 14:58 57.43947 24.13996 36958 ft 377 kts 12°
2026-04-22 14:59 57.49096 24.15761 36956 ft 376 kts 12°
2026-04-22 14:59 57.53376 24.17223 36953 ft 376 kts 12°
2026-04-22 15:00 57.58524 24.18991 36951 ft 376 kts 12°
2026-04-22 15:00 57.63665 24.20766 36950 ft 376 kts 12°
2026-04-22 15:01 57.68800 24.22541 36941 ft 375 kts 12°
2026-04-22 15:01 57.73932 24.24328 36934 ft 374 kts 10°
2026-04-22 15:02 57.79034 24.26104 36927 ft 371 kts 10°
2026-04-22 15:02 57.84100 24.27888 36914 ft 370 kts 10°
2026-04-22 15:03 57.89146 24.29662 36910 ft 368 kts 10°
2026-04-22 15:03 57.94185 24.31395 36898 ft 368 kts
2026-04-22 15:04 57.99219 24.33101 36893 ft 367 kts 10°
2026-04-22 15:04 58.04247 24.34815 36886 ft 367 kts
2026-04-22 15:05 58.09271 24.36544 36881 ft 367 kts
2026-04-22 15:05 58.14290 24.38283 36878 ft 367 kts
2026-04-22 15:06 58.19305 24.40032 36873 ft 366 kts 10°
2026-04-22 15:06 58.24314 24.41781 36868 ft 366 kts
2026-04-22 15:07 58.29320 24.43524 36864 ft 366 kts
2026-04-22 15:07 58.34322 24.45279 36864 ft 365 kts
2026-04-22 15:08 58.39319 24.47037 36861 ft 365 kts
2026-04-22 15:08 58.44313 24.48786 36860 ft 365 kts
2026-04-22 15:09 58.49307 24.50546 36862 ft 365 kts
2026-04-22 15:09 58.54305 24.52307 36859 ft 365 kts
2026-04-22 15:10 58.59298 24.54079 36859 ft 365 kts
2026-04-22 15:10 58.64297 24.55852 36860 ft 365 kts
2026-04-22 15:11 58.69289 24.57628 36861 ft 365 kts
2026-04-22 15:11 58.74279 24.59417 36856 ft 365 kts
2026-04-22 15:12 58.79262 24.61211 36854 ft 364 kts
2026-04-22 15:12 58.84245 24.63011 36856 ft 364 kts
2026-04-22 15:13 58.89228 24.64807 36674 ft 364 kts
2026-04-22 15:13 58.91705 24.65702 36281 ft 361 kts
2026-04-22 15:13 58.94163 24.66587 35788 ft 359 kts
2026-04-22 15:14 58.96628 24.67472 35159 ft 361 kts
2026-04-22 15:14 58.99107 24.68363 34541 ft 363 kts
2026-04-22 15:14 59.01594 24.69261 33875 ft 365 kts
2026-04-22 15:14 59.04078 24.70168 33401 ft 362 kts
2026-04-22 15:15 59.06545 24.71075 32918 ft 360 kts
2026-04-22 15:15 59.08997 24.71982 32433 ft 357 kts
2026-04-22 15:15 59.11422 24.72879 31957 ft 354 kts
2026-04-22 15:15 59.13831 24.73765 31478 ft 350 kts
2026-04-22 15:16 59.16210 24.74637 31005 ft 347 kts
2026-04-22 15:16 59.18572 24.75498 30538 ft 343 kts
2026-04-22 15:16 59.20904 24.76347 30073 ft 339 kts
2026-04-22 15:16 59.23211 24.77192 29615 ft 335 kts
2026-04-22 15:17 59.25491 24.78032 29156 ft 332 kts
2026-04-22 15:17 59.27747 24.78860 28711 ft 328 kts
2026-04-22 15:17 59.29980 24.79682 28282 ft 325 kts
2026-04-22 15:17 59.32188 24.80501 27849 ft 321 kts
2026-04-22 15:18 59.34365 24.81318 27436 ft 318 kts
2026-04-22 15:18 59.36527 24.82130 27022 ft 315 kts
2026-04-22 15:18 59.38665 24.82931 26629 ft 311 kts
2026-04-22 15:18 59.40783 24.83784 26239 ft 311 kts 10°
2026-04-22 15:19 59.42825 24.85228 25848 ft 313 kts 15°
2026-04-22 15:19 59.44820 24.86879 25467 ft 310 kts 15°
2026-04-22 15:19 59.46796 24.88514 25089 ft 307 kts 15°
2026-04-22 15:19 59.48751 24.90134 24714 ft 303 kts 15°
2026-04-22 15:20 59.50036 24.91201 24468 ft 301 kts 14°
2026-04-22 15:20 59.52597 24.93331 23979 ft 296 kts 14°
2026-04-22 15:20 59.54483 24.94902 23606 ft 293 kts 14°
2026-04-22 15:20 59.56386 24.96479 23243 ft 306 kts 14°
2026-04-22 15:21 59.58382 24.98120 22852 ft 313 kts 15°
2026-04-22 15:21 59.60394 24.99791 22444 ft 314 kts 15°
2026-04-22 15:21 59.62400 25.01474 22040 ft 313 kts 15°
2026-04-22 15:21 59.64397 25.03151 21626 ft 311 kts 15°
2026-04-22 15:22 59.66384 25.04819 21209 ft 310 kts 15°
2026-04-22 15:22 59.68366 25.06487 20792 ft 308 kts 15°
2026-04-22 15:22 59.70334 25.08146 20380 ft 307 kts 15°
2026-04-22 15:22 59.72295 25.09802 19966 ft 305 kts 15°
2026-04-22 15:23 59.74243 25.11450 19545 ft 304 kts 15°
2026-04-22 15:23 59.76188 25.13095 19128 ft 303 kts 15°
2026-04-22 15:23 59.78124 25.14734 18717 ft 301 kts 15°
2026-04-22 15:23 59.80045 25.16361 18307 ft 300 kts 15°
2026-04-22 15:24 59.81963 25.17981 17760 ft 299 kts 14°
2026-04-22 15:24 59.83847 25.19577 17347 ft 294 kts 15°
2026-04-22 15:24 59.85726 25.21172 16845 ft 294 kts 15°
2026-04-22 15:24 59.87605 25.22766 16362 ft 293 kts 15°
2026-04-22 15:25 59.89456 25.24019 16099 ft 270 kts
2026-04-22 15:25 59.91277 25.24250 15841 ft 258 kts 351°
2026-04-22 15:25 59.93016 25.23556 15571 ft 254 kts 340°
2026-04-22 15:25 59.94704 25.22470 15140 ft 256 kts 340°
2026-04-22 15:26 59.96400 25.21382 14691 ft 257 kts 340°
2026-04-22 15:26 59.98106 25.20290 14239 ft 258 kts 340°
2026-04-22 15:26 59.99798 25.19213 13785 ft 254 kts 340°
2026-04-22 15:26 60.01474 25.18146 13333 ft 252 kts 341°
2026-04-22 15:27 60.03136 25.17085 12880 ft 250 kts 340°
2026-04-22 15:27 60.04792 25.16026 12428 ft 249 kts 340°
2026-04-22 15:27 60.06440 25.14977 11969 ft 248 kts 340°
2026-04-22 15:27 60.08084 25.13932 11521 ft 248 kts 340°
2026-04-22 15:28 60.09732 25.12883 11076 ft 249 kts 341°
2026-04-22 15:28 60.11389 25.11828 10613 ft 251 kts 341°
2026-04-22 15:28 60.13019 25.10575 10163 ft 251 kts 331°
2026-04-22 15:28 60.14397 25.08429 9709 ft 253 kts 315°
2026-04-22 15:29 60.15382 25.05491 9253 ft 256 kts 300°
2026-04-22 15:29 60.16140 25.02320 8803 ft 247 kts 301°
2026-04-22 15:29 60.16870 24.99269 8406 ft 238 kts 301°
2026-04-22 15:30 60.17860 24.94212 7729 ft 232 kts 284°
2026-04-22 15:30 60.17664 24.89893 7109 ft 242 kts 257°
2026-04-22 15:30 60.16815 24.86941 6606 ft 249 kts 235°
2026-04-22 15:30 60.15643 24.84373 6137 ft 246 kts 237°
2026-04-22 15:31 60.14881 24.81466 5547 ft 229 kts 266°
2026-04-22 15:31 60.14947 24.78436 5006 ft 211 kts 294°
2026-04-22 15:31 60.15654 24.76011 4561 ft 196 kts 317°
2026-04-22 15:31 60.16640 24.74188 4103 ft 191 kts 320°
2026-04-22 15:32 60.17607 24.72423 3707 ft 186 kts 319°
2026-04-22 15:32 60.18556 24.70676 3302 ft 185 kts 320°
2026-04-22 15:32 60.19533 24.68995 2896 ft 184 kts 330°
2026-04-22 15:32 60.20772 24.68520 2510 ft 188 kts
2026-04-22 15:33 60.21908 24.69834 2325 ft 198 kts 40°
2026-04-22 15:33 60.22854 24.71902 2306 ft 202 kts 41°
2026-04-22 15:33 60.23794 24.73980 2232 ft 197 kts 41°
2026-04-22 15:33 60.24702 24.75970 2047 ft 188 kts 40°
2026-04-22 15:34 60.25548 24.77820 1819 ft 171 kts 40°
2026-04-22 15:34 60.26325 24.79517 1619 ft 160 kts 40°
2026-04-22 15:34 60.27069 24.81140 1385 ft 156 kts 40°
2026-04-22 15:34 60.27806 24.82750 1169 ft 156 kts 40°
2026-04-22 15:35 60.28302 24.83837 1039 ft 155 kts 41°
2026-04-22 15:35 60.29270 24.85956 752 ft 155 kts 41°
2026-04-22 15:35 60.29997 24.87548 568 ft 154 kts 42°
2026-04-22 15:35 60.30720 24.89134 366 ft 153 kts 42°
2026-04-22 15:36 60.31439 24.90712 165 ft 152 kts 43°
2026-04-22 15:36 60.32076 24.92100 157 ft 113 kts 47°
2026-04-22 15:36 60.32416 24.92870 173 ft 28 kts 65°
2026-04-22 15:36 60.32461 24.93244 175 ft 27 kts 78°
2026-04-22 15:37 60.32490 24.93512 173 ft 13 kts 77°
2026-04-22 15:37 60.32504 24.93639 172 ft 11 kts 77°
2026-04-22 15:37 60.32522 24.93800 171 ft 13 kts 78°
2026-04-22 15:37 60.32563 24.93972 170 ft 15 kts 49°
2026-04-22 15:38 60.32632 24.94126 171 ft 15 kts 47°
2026-04-22 15:38 60.32781 24.94453 173 ft 16 kts 47°
2026-04-22 15:38 60.32860 24.94628 174 ft 17 kts 47°
2026-04-22 15:39 60.32926 24.94779 177 ft 8 kts 58°
2026-04-22 15:39 60.32909 24.94882 176 ft 10 kts 139°
2026-04-22 15:39 60.32836 24.94951 175 ft 12 kts 161°
2026-04-22 15:39 60.32760 24.95000 177 ft 11 kts 162°
2026-04-22 15:40 60.32681 24.95051 180 ft 13 kts 163°
2026-04-22 15:40 60.32623 24.95088 180 ft 13 kts 162°
2026-04-22 15:40 60.32532 24.95148 180 ft 15 kts 161°
2026-04-22 15:40 60.32422 24.95218 178 ft 18 kts 162°
2026-04-22 15:41 60.32308 24.95326 176 ft 18 kts 140°
2026-04-22 15:41 60.32232 24.95467 175 ft 11 kts 137°
2026-04-22 15:41 60.32176 24.95568 173 ft 10 kts 137°
2026-04-22 15:41 60.32125 24.95662 172 ft 10 kts 138°
2026-04-22 15:42 60.32076 24.95753 174 ft 9 kts 136°
2026-04-22 15:42 60.32027 24.95844 174 ft 11 kts 137°
2026-04-22 15:42 60.31965 24.95958 172 ft 12 kts 137°
2026-04-22 15:42 60.31895 24.96087 167 ft 14 kts 138°
2026-04-22 15:43 60.31843 24.96151 167 ft 7 kts 147°
2026-04-22 15:43 60.31810 24.96210 167 ft 5 kts 138°
2026-04-22 15:43 60.31789 24.96250 167 ft 3 kts 137°
2026-04-22 15:43 60.31781 24.96265 167 ft 0 kts 137°